map of VIE home
VIE - Airport
Location
City:  Wien, Wien (Vienna), Austria
Near (Alt.):Vienna
Name:Vienna International Airport
Old (Alt.):Schwechat
ICAO:LOWW
IATA:VIE

Details
Type:Airport (Flugplatz, Airfield)
Use:Public/Civil, International (customs port of entry)
Latitude:4806'37"N (48.110278)
Longitude:1634'11"E (16.569722)
Datum:WGS 1984
Elevation:600 ft (183 m)
Variation:4.36E (WMM2015 magnetic declination)
0.12 annual change
Runways:2
Longest:11811 × 148 ft (3600 × 45 m), paved

Time
Time Zone:UTC+1 (DST+2)
Local Time:

Weather
METAR:LOWW 211920Z 33009KT 9999 SCT031 BKN072 09/05 Q1027 NOSIG
TAF:LOWW 211715Z 2118/2224 35010KT 9999 BKN040 TX15/2214Z TN05/2205Z
BECMG 2204/2207 CAVOK
BECMG 2221/2223 9999 BKN025

Related Locations
Nearby:
Farthest:CHT: 11745 mi / 18902 km
Waitangi [Tuuta], CIT, NZ

Find:

   beyond  
but within

Other Information
Maps:
NOTAMs:
Links:
Sources:

  
  • flag of Austria
  • flag of Wien (Vienna)
  • flag of Wien
  

Sectional Chart

Flight Planning
at skyvector.com

Satellite Image

Google Maps Satellite view

 

Copyright © 2004-2018 Karl L. Swartz. All rights reserved.
The Great Circle Mapper name and logo are trademarks of the Great Circle Mapper.
All other trademarks mentioned herein belong to their respective owners.
Please see credits for attibutions and further copyright information.

  Follow gcmap on Facebook Follow gcmap on Twitter Follow gcmap on Google+ GCmap on LinkedIn

hCard Microformat

Geo Microformat